Location: Champs
(48.8539°N, 2.6040°E)
Time: 06:07:42
(UTC+00:00)

Cosmos 1953 - Pass Details

Date: 03 June 2022
Orbit: 533 x 555 km, 82.5° (Epoch: 03 July)

Event Time Altitude Azimuth Distance (km) Brightness Sun altitude
Rises 22:49:27 0° 355° (N) 2,718 7.5 -17.6°
Reaches altitude 10° 22:51:42 10° 1° (N) 1,817 6.1 -17.6°
Maximum altitude 22:55:33 47° 76° (ENE) 727 2.9 -17.8°
Enters shadow 22:56:51 33° 126° (SE) 913 3.0 -17.8°
